QPF
0.00 0.00 0.01 0.00 0.01 0.01 0.01 0.01 0.01 0.01 0.01 0.00 0.00 0.00 0.00 0.00 0.01 0.01 0.02 0.05 0.07 0.10 0.14 0.19 0.22 0.23 0.23 0.22 0.22 0.24 0.24 0.20 0.15 0.12 0.10 0.08 0.07 0.06
0.00 0.00 0.00 0.00 0.00 0.00 0.00 0.00 0.00 0.01 0.01 0.00 0.00 0.00 0.00 0.00 0.00 0.01 0.02 0.04 0.06 0.09 0.14 0.16 0.16 0.17 0.17 0.17 0.19 0.20 0.20 0.18 0.15 0.13 0.11 0.09 0.08 0.08
0.00 0.00 0.00 0.00 0.00 0.00 0.00 0.00 0.00 0.00 0.00 0.00 0.00 0.00 0.00 0.00 0.01 0.01 0.02 0.03 0.06 0.09 0.12 0.13 0.13 0.13 0.13 0.14 0.15 0.15 0.14 0.13 0.12 0.11 0.10 0.08 0.07 0.07
0.00 0.00 0.00 0.00 0.00 0.00 0.00 0.00 0.00 0.00 0.00 0.00 0.00 0.00 0.00 0.00 0.00 0.01 0.02 0.03 0.04 0.07 0.09 0.11 0.12 0.12 0.11 0.11 0.11 0.11 0.10 0.08 0.07 0.06 0.06 0.06 0.05 0.05
0.00 0.00 0.00 0.00 0.00 0.00 0.00 0.00 0.00 0.00 0.00 0.00 0.00 0.00 0.00 0.00 0.00 0.00 0.01 0.01 0.02 0.04 0.05 0.06 0.07 0.07 0.07 0.07 0.07 0.07 0.07 0.06 0.05 0.04 0.04 0.04 0.04 0.03
0.00 0.00 0.00 0.00 0.00 0.00 0.00 0.00 0.00 0.00 0.00 0.00 0.00 0.00 0.00 0.00 0.00 0.00 0.01 0.01 0.01 0.01 0.02 0.02 0.02 0.03 0.03 0.03 0.03 0.03 0.03 0.03 0.03 0.03 0.02 0.02 0.02 0.02
0.00 0.00 0.00 0.00 0.00 0.00 0.00 0.00 0.00 0.00 0.00 0.00 0.00 0.00 0.00 0.00 0.00 0.00 0.00 0.00 0.01 0.01 0.01 0.01 0.01 0.01 0.01 0.01 0.01 0.01 0.01 0.01 0.01 0.01 0.01 0.01 0.01 0.01
0.00 0.00 0.00 0.00 0.00 0.00 0.00 0.00 0.00 0.00 0.00 0.00 0.00 0.00 0.00 0.00 0.00 0.00 0.00 0.00 0.00 0.00 0.00 0.00 0.00 0.00 0.00 0.00 0.00 0.00 0.00 0.00 0.00 0.00 0.00 0.00 0.00 0.00
0.00 0.00 0.00 0.00 0.00 0.00 0.00 0.00 0.00 0.00 0.00 0.00 0.00 0.00 0.00 0.00 0.00 0.00 0.00 0.00 0.00 0.00 0.00 0.00 0.00 0.00 0.00 0.00 0.00 0.00 0.00 0.00 0.00 0.00 0.00 0.00 0.00 0.00
0.00 0.00 0.00 0.00 0.00 0.00 0.00 0.00 0.00 0.00 0.00 0.00 0.00 0.00 0.00 0.00 0.00 0.00 0.00 0.00 0.00 0.00 0.00 0.00 0.00 0.00 0.00 0.00 0.00 0.00 0.00 0.00 0.00 0.00 0.00 0.00 0.00 0.00
0.00 0.00 0.00 0.00 0.00 0.00 0.00 0.00 0.00 0.00 0.00 0.00 0.00 0.00 0.00 0.00 0.00 0.00 0.00 0.00 0.00 0.00 0.00 0.00 0.00 0.00 0.00 0.00 0.00 0.00 0.00 0.00 0.00 0.00 0.00 0.00 0.00 0.00
0.00 0.00 0.00 0.00 0.00 0.00 0.00 0.00 0.00 0.00 0.00 0.00 0.00 0.00 0.00 0.00 0.00 0.00 0.00 0.00 0.00 0.00 0.00 0.00 0.00 0.00 0.00 0.00 0.00 0.00 0.00 0.00 0.00 0.00 0.00 0.00 0.00 0.00
0.00 0.00 0.00 0.00 0.00 0.00 0.00 0.00 0.00 0.00 0.00 0.00 0.00 0.00 0.00 0.00 0.00 0.00 0.00 0.00 0.00 0.00 0.00 0.00 0.00 0.00 0.00 0.00 0.00 0.00 0.00 0.00 0.00 0.00 0.00 0.00 0.00 0.00
0.00 0.00 0.00 0.00 0.00 0.00 0.00 0.00 0.00 0.00 0.00 0.00 0.00 0.00 0.00 0.00 0.00 0.00 0.00 0.00 0.00 0.00 0.00 0.00 0.00 0.00 0.00 0.00 0.00 0.00 0.00 0.00 0.00 0.00 0.00 0.00 0.00 0.00
0.00 0.00 0.00 0.00 0.00 0.00 0.00 0.00 0.00 0.00 0.00 0.00 0.00 0.00 0.00 0.00 0.00 0.00 0.00 0.00 0.00 0.00 0.00 0.00 0.00 0.00 0.01 0.01 0.00 0.00 0.00 0.00 0.00 0.00 0.00 0.00 0.00 0.00
0.00 0.00 0.00 0.00 0.00 0.00 0.00 0.00 0.00 0.00 0.00 0.00 0.00 0.00 0.00 0.00 0.00 0.00 0.00 0.00 0.00 0.00 0.00 0.00 0.00 0.00 0.00 0.00 0.00 0.00 0.00 0.00 0.00 0.00 0.00 0.00 0.00 0.00
0.00 0.00 0.00 0.00 0.00 0.00 0.00 0.00 0.00 0.00 0.00 0.00 0.00 0.00 0.00 0.00 0.00 0.00 0.00 0.00 0.00 0.00 0.00 0.00 0.00 0.00 0.00 0.00 0.00 0.00 0.00 0.00 0.00 0.00 0.00 0.00 0.00 0.00
0.00 0.00 0.00 0.00 0.00 0.00 0.00 0.00 0.00 0.00 0.00 0.00 0.00 0.00 0.00 0.00 0.00 0.00 0.00 0.00 0.00 0.00 0.00 0.00 0.00 0.00 0.00 0.00 0.00 0.00 0.00 0.00 0.00 0.00 0.00 0.00 0.00 0.00
0.00 0.00 0.00 0.00 0.00 0.00 0.00 0.00 0.00 0.00 0.00 0.00 0.00 0.00 0.00 0.00 0.00 0.00 0.00 0.00 0.00 0.00 0.00 0.00 0.00 0.01 0.01 0.00 0.00 0.00 0.00 0.00 0.00 0.00 0.00 0.00 0.00 0.00
0.00 0.00 0.00 0.00 0.00 0.00 0.00 0.00 0.00 0.00 0.00 0.00 0.00 0.00 0.00 0.00 0.00 0.00 0.00 0.00 0.00 0.00 0.00 0.00 0.00 0.01 0.01 0.00 0.00 0.00 0.00 0.00 0.00 0.00 0.00 0.00 0.00 0.00
0.00 0.00 0.00 0.00 0.00 0.00 0.00 0.00 0.00 0.00 0.00 0.00 0.00 0.00 0.00 0.00 0.00 0.00 0.00 0.00 0.00 0.01 0.00 0.00 0.00 0.00 0.01 0.03 0.02 0.00 0.00 0.00 0.00 0.00 0.00 0.01 0.01 0.00
0.00 0.00 0.00 0.00 0.00 0.00 0.00 0.00 0.00 0.00 0.00 0.00 0.00 0.00 0.00 0.00 0.00 0.00 0.00 0.00 0.00 0.00 0.00 0.00 0.00 0.00 0.02 0.03 0.01 0.00 0.00 0.00 0.00 0.00 0.00 0.01 0.01 0.01
0.00 0.00 0.00 0.00 0.00 0.00 0.00 0.00 0.00 0.00 0.00 0.00 0.00 0.00 0.00 0.00 0.00 0.00 0.00 0.00 0.01 0.00 0.00 0.00 0.00 0.01 0.01 0.01 0.01 0.01 0.00 0.00 0.00 0.00 0.00 0.00 0.00 0.00
MSLP
1018.34 1018.48 1018.65 1018.82 1018.95 1019.03 1019.06 1019.06 1019.04 1019.03 1019.06 1019.13 1019.24 1019.39 1019.54 1019.67 1019.74 1019.72 1019.62 1019.42 1019.14 1018.82 1018.49 1018.20 1017.98 1017.86 1017.87 1018.01 1018.27 1018.65 1019.11 1019.63 1020.18 1020.72 1021.23 1021.68 1022.06 1022.35
1018.72 1018.87 1019.05 1019.23 1019.37 1019.45 1019.49 1019.48 1019.46 1019.43 1019.45 1019.50 1019.60 1019.73 1019.87 1019.99 1020.06 1020.04 1019.92 1019.72 1019.43 1019.09 1018.74 1018.42 1018.17 1018.02 1018.00 1018.10 1018.34 1018.68 1019.11 1019.60 1020.11 1020.61 1021.08 1021.50 1021.84 1022.09
1019.29 1019.44 1019.62 1019.80 1019.94 1020.02 1020.05 1020.04 1020.00 1019.97 1019.96 1019.99 1020.06 1020.17 1020.28 1020.37 1020.41 1020.38 1020.25 1020.04 1019.75 1019.41 1019.06 1018.75 1018.50 1018.35 1018.31 1018.40 1018.61 1018.92 1019.31 1019.75 1020.20 1020.64 1021.04 1021.39 1021.67 1021.88
1020.00 1020.15 1020.32 1020.48 1020.61 1020.69 1020.71 1020.69 1020.64 1020.59 1020.56 1020.56 1020.60 1020.67 1020.74 1020.79 1020.80 1020.74 1020.59 1020.37 1020.08 1019.76 1019.43 1019.14 1018.91 1018.77 1018.75 1018.83 1019.02 1019.30 1019.63 1020.00 1020.38 1020.74 1021.07 1021.34 1021.55 1021.70
1020.79 1020.93 1021.08 1021.22 1021.33 1021.39 1021.39 1021.36 1021.30 1021.24 1021.19 1021.17 1021.18 1021.21 1021.23 1021.24 1021.20 1021.11 1020.94 1020.71 1020.42 1020.12 1019.82 1019.55 1019.36 1019.24 1019.23 1019.31 1019.48 1019.71 1019.99 1020.28 1020.58 1020.85 1021.09 1021.29 1021.43 1021.52
1021.59 1021.71 1021.83 1021.94 1022.02 1022.05 1022.04 1021.99 1021.93 1021.86 1021.80 1021.76 1021.74 1021.73 1021.71 1021.68 1021.60 1021.46 1021.27 1021.03 1020.75 1020.47 1020.19 1019.96 1019.79 1019.69 1019.68 1019.75 1019.89 1020.07 1020.28 1020.50 1020.71 1020.89 1021.05 1021.17 1021.25 1021.31
1022.33 1022.43 1022.51 1022.58 1022.62 1022.61 1022.58 1022.52 1022.45 1022.37 1022.31 1022.26 1022.22 1022.18 1022.14 1022.06 1021.95 1021.79 1021.58 1021.33 1021.06 1020.79 1020.53 1020.32 1020.17 1020.08 1020.06 1020.10 1020.19 1020.30 1020.44 1020.57 1020.70 1020.81 1020.89 1020.96 1021.00 1021.03
1022.97 1023.03 1023.07 1023.08 1023.07 1023.04 1022.98 1022.90 1022.82 1022.75 1022.68 1022.63 1022.59 1022.54 1022.47 1022.38 1022.25 1022.07 1021.86 1021.61 1021.34 1021.08 1020.84 1020.64 1020.48 1020.38 1020.33 1020.33 1020.35 1020.40 1020.45 1020.50 1020.55 1020.59 1020.62 1020.64 1020.66 1020.68
1023.44 1023.46 1023.46 1023.43 1023.37 1023.30 1023.21 1023.13 1023.04 1022.97 1022.91 1022.87 1022.83 1022.78 1022.71 1022.61 1022.48 1022.31 1022.09 1021.85 1021.60 1021.35 1021.12 1020.91 1020.75 1020.62 1020.52 1020.46 1020.41 1020.38 1020.35 1020.32 1020.29 1020.27 1020.26 1020.25 1020.27 1020.29
1023.74 1023.72 1023.67 1023.61 1023.52 1023.42 1023.31 1023.21 1023.13 1023.07 1023.02 1022.98 1022.95 1022.92 1022.86 1022.77 1022.65 1022.49 1022.30 1022.08 1021.85 1021.61 1021.38 1021.17 1020.98 1020.82 1020.67 1020.54 1020.41 1020.30 1020.18 1020.08 1019.99 1019.92 1019.87 1019.85 1019.86 1019.90
1023.84 1023.80 1023.74 1023.64 1023.54 1023.42 1023.31 1023.21 1023.13 1023.08 1023.04 1023.02 1023.01 1022.98 1022.94 1022.88 1022.78 1022.64 1022.48 1022.29 1022.08 1021.86 1021.64 1021.43 1021.22 1021.01 1020.81 1020.61 1020.41 1020.22 1020.03 1019.86 1019.71 1019.60 1019.52 1019.49 1019.49 1019.53
1023.79 1023.75 1023.67 1023.58 1023.47 1023.36 1023.26 1023.17 1023.10 1023.06 1023.03 1023.02 1023.02 1023.01 1022.99 1022.94 1022.87 1022.76 1022.63 1022.47 1022.29 1022.10 1021.89 1021.68 1021.45 1021.22 1020.97 1020.71 1020.45 1020.19 1019.93 1019.70 1019.51 1019.35 1019.24 1019.19 1019.18 1019.21
1023.61 1023.58 1023.53 1023.46 1023.37 1023.28 1023.20 1023.12 1023.07 1023.03 1023.02 1023.01 1023.02 1023.01 1023.00 1022.97 1022.92 1022.84 1022.74 1022.61 1022.46 1022.29 1022.10 1021.89 1021.66 1021.40 1021.12 1020.82 1020.51 1020.19 1019.88 1019.60 1019.36 1019.16 1019.02 1018.94 1018.90 1018.90
1023.34 1023.35 1023.33 1023.30 1023.25 1023.20 1023.14 1023.09 1023.05 1023.02 1023.01 1023.00 1023.00 1022.99 1022.98 1022.96 1022.91 1022.85 1022.77 1022.67 1022.54 1022.39 1022.22 1022.02 1021.78 1021.52 1021.21 1020.89 1020.54 1020.18 1019.83 1019.51 1019.22 1018.99 1018.80 1018.68 1018.60 1018.57
1023.02 1023.07 1023.11 1023.12 1023.12 1023.11 1023.08 1023.05 1023.02 1023.00 1022.98 1022.97 1022.95 1022.93 1022.91 1022.87 1022.83 1022.77 1022.69 1022.60 1022.49 1022.35 1022.19 1022.00 1021.77 1021.50 1021.19 1020.84 1020.47 1020.08 1019.71 1019.34 1019.02 1018.74 1018.51 1018.35 1018.22 1018.14
1022.66 1022.77 1022.85 1022.92 1022.96 1022.98 1022.98 1022.97 1022.96 1022.93 1022.91 1022.88 1022.84 1022.80 1022.76 1022.70 1022.64 1022.56 1022.48 1022.38 1022.27 1022.14 1021.98 1021.79 1021.56 1021.29 1020.98 1020.62 1020.23 1019.83 1019.43 1019.04 1018.67 1018.36 1018.09 1017.87 1017.69 1017.56
1022.28 1022.43 1022.56 1022.67 1022.74 1022.79 1022.81 1022.82 1022.80 1022.78 1022.74 1022.70 1022.64 1022.58 1022.51 1022.42 1022.33 1022.23 1022.13 1022.01 1021.89 1021.74 1021.58 1021.38 1021.15 1020.87 1020.55 1020.19 1019.80 1019.39 1018.96 1018.55 1018.15 1017.79 1017.48 1017.21 1016.99 1016.81
1021.87 1022.06 1022.21 1022.34 1022.43 1022.49 1022.53 1022.54 1022.53 1022.50 1022.46 1022.40 1022.33 1022.25 1022.15 1022.04 1021.92 1021.79 1021.66 1021.51 1021.35 1021.19 1021.00 1020.79 1020.54 1020.26 1019.94 1019.57 1019.18 1018.75 1018.31 1017.88 1017.46 1017.07 1016.71 1016.40 1016.14 1015.92
1021.43 1021.62 1021.79 1021.92 1022.01 1022.07 1022.11 1022.12 1022.11 1022.09 1022.05 1022.00 1021.93 1021.83 1021.72 1021.59 1021.44 1021.28 1021.11 1020.92 1020.73 1020.53 1020.32 1020.08 1019.82 1019.52 1019.19 1018.83 1018.42 1017.99 1017.54 1017.09 1016.65 1016.23 1015.85 1015.51 1015.21 1014.96
1020.92 1021.11 1021.27 1021.39 1021.48 1021.53 1021.57 1021.58 1021.58 1021.57 1021.55 1021.50 1021.44 1021.35 1021.23 1021.09 1020.93 1020.73 1020.53 1020.31 1020.08 1019.84 1019.59 1019.33 1019.05 1018.74 1018.40 1018.03 1017.62 1017.18 1016.73 1016.27 1015.81 1015.37 1014.96 1014.59 1014.27 1014.00
1020.36 1020.53 1020.67 1020.77 1020.84 1020.89 1020.92 1020.95 1020.96 1020.97 1020.97 1020.95 1020.91 1020.83 1020.72 1020.58 1020.40 1020.19 1019.95 1019.70 1019.43 1019.16 1018.87 1018.59 1018.28 1017.96 1017.61 1017.23 1016.83 1016.39 1015.93 1015.47 1015.00 1014.54 1014.11 1013.72 1013.38 1013.09
1019.73 1019.89 1020.00 1020.08 1020.14 1020.18 1020.22 1020.25 1020.28 1020.32 1020.35 1020.36 1020.34 1020.29 1020.19 1020.05 1019.86 1019.64 1019.38 1019.10 1018.80 1018.49 1018.18 1017.86 1017.54 1017.20 1016.85 1016.47 1016.06 1015.63 1015.17 1014.70 1014.23 1013.76 1013.32 1012.91 1012.55 1012.23
1019.06 1019.19 1019.29 1019.35 1019.40 1019.44 1019.48 1019.53 1019.59 1019.65 1019.70 1019.74 1019.75 1019.71 1019.63 1019.49 1019.29 1019.05 1018.78 1018.47 1018.14 1017.81 1017.47 1017.14 1016.79 1016.45 1016.09 1015.71 1015.30 1014.87 1014.41 1013.94 1013.46 1012.98 1012.52 1012.10 1011.72 1011.39
Thickness
5593 5591 5588 5584 5580 5577 5574 5571 5569 5570 5569 5564 5555 5545 5540 5537 5534 5532 5530 5527 5525 5523 5522 5520 5518 5515 5512 5508 5504 5501 5498 5494 5491 5489 5489 5488 5487 5488
5579 5577 5574 5570 5567 5563 5560 5558 5555 5555 5555 5548 5540 5532 5529 5526 5523 5521 5519 5517 5515 5514 5512 5511 5509 5506 5503 5500 5496 5493 5489 5484 5481 5480 5479 5479 5479 5479
5565 5563 5560 5557 5554 5550 5548 5545 5542 5540 5541 5535 5527 5521 5518 5515 5513 5511 5509 5507 5506 5504 5503 5501 5500 5497 5494 5491 5488 5483 5480 5476 5474 5472 5471 5470 5470 5471
5552 5549 5546 5544 5541 5538 5535 5533 5530 5527 5527 5524 5517 5512 5508 5504 5502 5501 5499 5496 5494 5493 5492 5490 5489 5487 5484 5481 5477 5474 5470 5467 5465 5463 5462 5461 5462 5462
5538 5536 5534 5532 5529 5526 5523 5521 5518 5515 5513 5511 5506 5501 5497 5494 5493 5491 5489 5486 5484 5482 5481 5479 5477 5475 5473 5470 5467 5464 5461 5459 5457 5455 5453 5453 5453 5454
5523 5521 5520 5518 5516 5514 5511 5509 5506 5505 5502 5500 5496 5492 5488 5485 5483 5481 5480 5477 5474 5471 5469 5467 5465 5464 5461 5459 5457 5454 5452 5450 5448 5447 5445 5444 5444 5444
5510 5508 5506 5504 5502 5501 5499 5497 5495 5494 5492 5489 5486 5483 5479 5475 5472 5470 5469 5468 5465 5461 5460 5458 5456 5454 5452 5449 5447 5445 5443 5441 5439 5438 5436 5435 5435 5435
5498 5496 5494 5491 5490 5488 5486 5484 5482 5481 5479 5477 5475 5472 5467 5463 5461 5459 5458 5458 5458 5452 5449 5449 5447 5445 5443 5440 5437 5435 5433 5432 5430 5429 5427 5427 5426 5426
5487 5485 5484 5481 5479 5477 5475 5472 5470 5467 5465 5465 5464 5460 5456 5452 5449 5448 5446 5444 5443 5440 5438 5440 5438 5436 5433 5430 5426 5424 5423 5421 5420 5418 5417 5416 5415 5415
5476 5475 5474 5472 5469 5467 5465 5462 5460 5457 5455 5453 5451 5447 5444 5441 5439 5436 5434 5432 5432 5429 5425 5427 5428 5425 5422 5420 5416 5413 5411 5409 5408 5406 5405 5404 5403 5402
5467 5465 5464 5463 5460 5457 5456 5453 5452 5449 5444 5440 5437 5434 5431 5429 5426 5425 5423 5421 5422 5421 5414 5412 5413 5411 5410 5408 5404 5400 5397 5395 5394 5392 5391 5389 5388 5387
5459 5457 5454 5453 5451 5448 5447 5445 5443 5440 5436 5433 5429 5426 5422 5419 5415 5413 5411 5407 5406 5406 5402 5398 5397 5395 5394 5395 5390 5387 5384 5382 5379 5377 5376 5374 5372 5372
5452 5450 5447 5444 5442 5440 5437 5436 5432 5429 5427 5424 5421 5418 5414 5410 5406 5402 5398 5393 5391 5390 5388 5382 5378 5377 5374 5375 5375 5373 5370 5368 5365 5363 5361 5359 5357 5356
5444 5441 5439 5435 5433 5430 5428 5425 5422 5418 5417 5414 5412 5409 5404 5400 5395 5390 5385 5381 5377 5375 5371 5366 5362 5360 5357 5356 5357 5357 5355 5352 5350 5348 5346 5344 5342 5341
5435 5432 5429 5426 5424 5421 5418 5415 5412 5409 5407 5405 5402 5398 5393 5387 5383 5379 5375 5370 5366 5363 5360 5354 5349 5345 5341 5339 5340 5339 5336 5336 5333 5332 5330 5329 5328 5327
5428 5424 5421 5418 5414 5412 5409 5406 5403 5400 5397 5395 5392 5387 5382 5377 5373 5369 5365 5361 5358 5356 5351 5344 5338 5333 5329 5326 5323 5323 5320 5319 5319 5317 5316 5315 5313 5313
5420 5417 5414 5411 5408 5406 5402 5398 5394 5391 5387 5384 5380 5376 5372 5368 5364 5359 5353 5348 5346 5344 5340 5335 5329 5324 5319 5315 5314 5313 5312 5310 5308 5305 5302 5302 5302 5301
5412 5410 5407 5405 5401 5398 5394 5390 5387 5383 5378 5374 5370 5365 5361 5357 5353 5348 5343 5338 5335 5332 5328 5324 5319 5314 5312 5311 5306 5304 5302 5300 5298 5295 5292 5291 5294 5293
5405 5403 5400 5397 5393 5389 5385 5381 5378 5374 5369 5364 5360 5355 5351 5346 5341 5337 5333 5329 5325 5322 5318 5312 5306 5301 5301 5304 5308 5296 5292 5290 5288 5286 5284 5283 5286 5286
5399 5396 5393 5389 5385 5381 5377 5373 5369 5365 5360 5356 5351 5346 5341 5336 5332 5328 5324 5319 5316 5312 5308 5302 5297 5292 5290 5291 5293 5289 5280 5278 5277 5277 5276 5277 5279 5280
5393 5389 5386 5382 5378 5374 5370 5366 5361 5357 5353 5348 5343 5338 5333 5328 5323 5319 5315 5311 5306 5302 5300 5297 5292 5285 5280 5276 5277 5281 5277 5271 5268 5266 5267 5266 5270 5274
5387 5383 5380 5376 5372 5368 5363 5359 5354 5350 5345 5340 5335 5331 5325 5320 5315 5310 5306 5302 5299 5295 5292 5288 5282 5276 5270 5268 5271 5274 5272 5268 5265 5262 5260 5259 5259 5268
5382 5378 5374 5370 5366 5362 5357 5352 5348 5343 5339 5334 5328 5323 5318 5312 5307 5303 5298 5294 5289 5286 5282 5279 5275 5270 5266 5262 5262 5264 5264 5262 5260 5260 5262 5259 5258 5261